owner,sensor,date,latitude,longitude,air_pressure(mBar),qcFlag 
LOOP,urn:ioos:station:wmo:lopl1:1,2017-05-01T00:20:00Z,28.8850,-90.0250,1009.1,11111222 
LOOP,urn:ioos:station:wmo:lopl1:1,2017-05-01T01:20:00Z,28.8850,-90.0250,1009.1,11111222 
LOOP,urn:ioos:station:wmo:lopl1:1,2017-05-01T02:20:00Z,28.8850,-90.0250,1010.1,11111222 
LOOP,urn:ioos:station:wmo:lopl1:1,2017-05-01T03:25:00Z,28.8850,-90.0250,1011.1,11111222 
LOOP,urn:ioos:station:wmo:lopl1:1,2017-05-01T04:25:00Z,28.8850,-90.0250,1011.1,11111222 
LOOP,urn:ioos:station:wmo:lopl1:1,2017-05-01T05:25:00Z,28.8850,-90.0250,1012.1,11111222 
LOOP,urn:ioos:station:wmo:lopl1:1,2017-05-01T06:25:00Z,28.8850,-90.0250,1012.1,11111222 
LOOP,urn:ioos:station:wmo:lopl1:1,2017-05-01T07:25:00Z,28.8850,-90.0250,1012.1,11111222 
LOOP,urn:ioos:station:wmo:lopl1:1,2017-05-01T08:25:00Z,28.8850,-90.0250,1013.1,11111222 
LOOP,urn:ioos:station:wmo:lopl1:1,2017-05-01T09:25:00Z,28.8850,-90.0250,1014.1,11111222 
LOOP,urn:ioos:station:wmo:lopl1:1,2017-05-01T10:25:00Z,28.8850,-90.0250,1014.1,11111222 
LOOP,urn:ioos:station:wmo:lopl1:1,2017-05-01T11:25:00Z,28.8850,-90.0250,1015.1,11111222 
LOOP,urn:ioos:station:wmo:lopl1:1,2017-05-01T12:25:00Z,28.8850,-90.0250,1015.1,11111222 
LOOP,urn:ioos:station:wmo:lopl1:1,2017-05-01T13:25:00Z,28.8850,-90.0250,1016.1,11111222 
LOOP,urn:ioos:station:wmo:lopl1:1,2017-05-01T14:25:00Z,28.8850,-90.0250,1017.1,11111222 
LOOP,urn:ioos:station:wmo:lopl1:1,2017-05-01T15:30:00Z,28.8850,-90.0250,1017.1,11111222 
LOOP,urn:ioos:station:wmo:lopl1:1,2017-05-01T16:30:00Z,28.8850,-90.0250,1017.1,11111222 
LOOP,urn:ioos:station:wmo:lopl1:1,2017-05-01T17:30:00Z,28.8850,-90.0250,1017.1,11111222 
LOOP,urn:ioos:station:wmo:lopl1:1,2017-05-01T18:30:00Z,28.8850,-90.0250,1017.1,11111222 
LOOP,urn:ioos:station:wmo:lopl1:1,2017-05-01T19:30:00Z,28.8850,-90.0250,1017.1,11111222 
LOOP,urn:ioos:station:wmo:lopl1:1,2017-05-01T20:30:00Z,28.8850,-90.0250,1016.1,11111222 
LOOP,urn:ioos:station:wmo:lopl1:1,2017-05-01T21:30:00Z,28.8850,-90.0250,1016.1,11111222 
LOOP,urn:ioos:station:wmo:lopl1:1,2017-05-01T22:30:00Z,28.8850,-90.0250,1015.1,11111222 
LOOP,urn:ioos:station:wmo:lopl1:1,2017-05-01T23:30:00Z,28.8850,-90.0250,1015.1,11111222 
LOOP,urn:ioos:station:wmo:lopl1:1,2017-05-02T00:30:00Z,28.8850,-90.0250,1015.1,11111222 
LOOP,urn:ioos:station:wmo:lopl1:1,2017-05-02T01:30:00Z,28.8850,-90.0250,1016.1,11111222 
LOOP,urn:ioos:station:wmo:lopl1:1,2017-05-02T02:30:00Z,28.8850,-90.0250,1016.1,11111222 
LOOP,urn:ioos:station:wmo:lopl1:1,2017-05-02T03:30:00Z,28.8850,-90.0250,1016.1,11111222 
LOOP,urn:ioos:station:wmo:lopl1:1,2017-05-02T04:30:00Z,28.8850,-90.0250,1016.1,11111222 
LOOP,urn:ioos:station:wmo:lopl1:1,2017-05-02T05:30:00Z,28.8850,-90.0250,1016.1,11111222 
LOOP,urn:ioos:station:wmo:lopl1:1,2017-05-02T06:35:00Z,28.8850,-90.0250,1016.1,11111222 
LOOP,urn:ioos:station:wmo:lopl1:1,2017-05-02T07:35:00Z,28.8850,-90.0250,1017.1,11111222 
LOOP,urn:ioos:station:wmo:lopl1:1,2017-05-02T08:35:00Z,28.8850,-90.0250,1016.1,11111222 
LOOP,urn:ioos:station:wmo:lopl1:1,2017-05-02T09:35:00Z,28.8850,-90.0250,1017.1,11111222 
LOOP,urn:ioos:station:wmo:lopl1:1,2017-05-02T10:35:00Z,28.8850,-90.0250,1017.1,11111222 
LOOP,urn:ioos:station:wmo:lopl1:1,2017-05-02T11:35:00Z,28.8850,-90.0250,1018.1,11111222 
LOOP,urn:ioos:station:wmo:lopl1:1,2017-05-02T12:35:00Z,28.8850,-90.0250,1018.1,11111222 
LOOP,urn:ioos:station:wmo:lopl1:1,2017-05-02T13:35:00Z,28.8850,-90.0250,1018.1,11111222 
LOOP,urn:ioos:station:wmo:lopl1:1,2017-05-02T14:35:00Z,28.8850,-90.0250,1019.1,11111222 
LOOP,urn:ioos:station:wmo:lopl1:1,2017-05-02T15:35:00Z,28.8850,-90.0250,1019.1,11111222 
LOOP,urn:ioos:station:wmo:lopl1:1,2017-05-02T16:35:00Z,28.8850,-90.0250,1019.1,11111222 
LOOP,urn:ioos:station:wmo:lopl1:1,2017-05-02T17:35:00Z,28.8850,-90.0250,1018.1,11111222 
LOOP,urn:ioos:station:wmo:lopl1:1,2017-05-02T18:35:00Z,28.8850,-90.0250,1018.1,11111222 
LOOP,urn:ioos:station:wmo:lopl1:1,2017-05-02T19:35:00Z,28.8850,-90.0250,1018.1,11111222 
LOOP,urn:ioos:station:wmo:lopl1:1,2017-05-02T20:35:00Z,28.8850,-90.0250,1017.1,11111222 
LOOP,urn:ioos:station:wmo:lopl1:1,2017-05-02T21:45:00Z,28.8850,-90.0250,1017.1,11111222 
LOOP,urn:ioos:station:wmo:lopl1:1,2017-05-02T23:25:00Z,28.8850,-90.0250,1016.1,11111222 
LOOP,urn:ioos:station:wmo:lopl1:1,2017-05-02T23:35:00Z,28.8850,-90.0250,1016.1,11111222 
LOOP,urn:ioos:station:wmo:lopl1:1,2017-05-03T00:35:00Z,28.8850,-90.0250,1016.1,11111222 
LOOP,urn:ioos:station:wmo:lopl1:1,2017-05-03T01:35:00Z,28.8850,-90.0250,1016.1,11111222 
LOOP,urn:ioos:station:wmo:lopl1:1,2017-05-03T02:35:00Z,28.8850,-90.0250,1017.1,11111222 
LOOP,urn:ioos:station:wmo:lopl1:1,2017-05-03T03:35:00Z,28.8850,-90.0250,1017.1,11111222 
LOOP,urn:ioos:station:wmo:lopl1:1,2017-05-03T04:35:00Z,28.8850,-90.0250,1017.1,11111222 
LOOP,urn:ioos:station:wmo:lopl1:1,2017-05-03T05:35:00Z,28.8850,-90.0250,1016.1,11111222 
LOOP,urn:ioos:station:wmo:lopl1:1,2017-05-03T06:35:00Z,28.8850,-90.0250,1016.1,11111222 
LOOP,urn:ioos:station:wmo:lopl1:1,2017-05-03T07:35:00Z,28.8850,-90.0250,1015.1,11111222 
LOOP,urn:ioos:station:wmo:lopl1:1,2017-05-03T08:35:00Z,28.8850,-90.0250,1015.1,11111222 
LOOP,urn:ioos:station:wmo:lopl1:1,2017-05-03T09:35:00Z,28.8850,-90.0250,1015.1,11111222 
LOOP,urn:ioos:station:wmo:lopl1:1,2017-05-03T10:35:00Z,28.8850,-90.0250,1015.1,11111222 
LOOP,urn:ioos:station:wmo:lopl1:1,2017-05-03T11:35:00Z,28.8850,-90.0250,1015.1,11111222 
LOOP,urn:ioos:station:wmo:lopl1:1,2017-05-03T12:35:00Z,28.8850,-90.0250,1015.1,11111222 
LOOP,urn:ioos:station:wmo:lopl1:1,2017-05-03T13:40:00Z,28.8850,-90.0250,1015.1,11111222 
LOOP,urn:ioos:station:wmo:lopl1:1,2017-05-03T14:40:00Z,28.8850,-90.0250,1014.1,11111222 
LOOP,urn:ioos:station:wmo:lopl1:1,2017-05-03T15:40:00Z,28.8850,-90.0250,1014.1,11111222 
LOOP,urn:ioos:station:wmo:lopl1:1,2017-05-03T16:40:00Z,28.8850,-90.0250,1014.1,11111222 
LOOP,urn:ioos:station:wmo:lopl1:1,2017-05-03T17:40:00Z,28.8850,-90.0250,1013.1,11111222 
LOOP,urn:ioos:station:wmo:lopl1:1,2017-05-03T18:40:00Z,28.8850,-90.0250,1012.1,11111222 
LOOP,urn:ioos:station:wmo:lopl1:1,2017-05-03T19:40:00Z,28.8850,-90.0250,1013.1,11111222 
LOOP,urn:ioos:station:wmo:lopl1:1,2017-05-03T20:40:00Z,28.8850,-90.0250,1013.1,11111222 
LOOP,urn:ioos:station:wmo:lopl1:1,2017-05-03T21:40:00Z,28.8850,-90.0250,1013.1,11111222 
LOOP,urn:ioos:station:wmo:lopl1:1,2017-05-03T22:40:00Z,28.8850,-90.0250,1011.1,11111222 
LOOP,urn:ioos:station:wmo:lopl1:1,2017-05-03T22:50:00Z,28.8850,-90.0250,1011.1,11111222 
LOOP,urn:ioos:station:wmo:lopl1:1,2017-05-03T23:50:00Z,28.8850,-90.0250,1010.1,11111222 
LOOP,urn:ioos:station:wmo:lopl1:1,2017-05-04T00:50:00Z,28.8850,-90.0250,1010.1,11111222 
LOOP,urn:ioos:station:wmo:lopl1:1,2017-05-04T01:55:00Z,28.8850,-90.0250,1009.1,11111222 
LOOP,urn:ioos:station:wmo:lopl1:1,2017-05-04T02:55:00Z,28.8850,-90.0250,1009.1,11111222 
LOOP,urn:ioos:station:wmo:lopl1:1,2017-05-04T03:55:00Z,28.8850,-90.0250,1008.1,11111222 
LOOP,urn:ioos:station:wmo:lopl1:1,2017-05-04T04:55:00Z,28.8850,-90.0250,1007.1,11111222 
LOOP,urn:ioos:station:wmo:lopl1:1,2017-05-04T05:55:00Z,28.8850,-90.0250,1009.1,11111222 
LOOP,urn:ioos:station:wmo:lopl1:1,2017-05-04T06:55:00Z,28.8850,-90.0250,1011.1,11111222 
LOOP,urn:ioos:station:wmo:lopl1:1,2017-05-04T07:55:00Z,28.8850,-90.0250,1008.1,11111222 
LOOP,urn:ioos:station:wmo:lopl1:1,2017-05-04T08:55:00Z,28.8850,-90.0250,1009.1,11111222 
LOOP,urn:ioos:station:wmo:lopl1:1,2017-05-04T09:55:00Z,28.8850,-90.0250,1009.1,11111222 
LOOP,urn:ioos:station:wmo:lopl1:1,2017-05-04T10:55:00Z,28.8850,-90.0250,1009.1,11111222 
LOOP,urn:ioos:station:wmo:lopl1:1,2017-05-04T12:00:00Z,28.8850,-90.0250,1008.1,11111222 
LOOP,urn:ioos:station:wmo:lopl1:1,2017-05-04T13:00:00Z,28.8850,-90.0250,1008.1,11111222 
LOOP,urn:ioos:station:wmo:lopl1:1,2017-05-04T14:00:00Z,28.8850,-90.0250,1007.1,11111222 
LOOP,urn:ioos:station:wmo:lopl1:1,2017-05-04T15:00:00Z,28.8850,-90.0250,1008.1,11111222 
LOOP,urn:ioos:station:wmo:lopl1:1,2017-05-04T16:00:00Z,28.8850,-90.0250,1008.1,11111222 
LOOP,urn:ioos:station:wmo:lopl1:1,2017-05-04T17:00:00Z,28.8850,-90.0250,1008.1,11111222 
LOOP,urn:ioos:station:wmo:lopl1:1,2017-05-04T18:00:00Z,28.8850,-90.0250,1007.1,11111222 
LOOP,urn:ioos:station:wmo:lopl1:1,2017-05-04T19:00:00Z,28.8850,-90.0250,1008.1,11111222 
LOOP,urn:ioos:station:wmo:lopl1:1,2017-05-04T20:00:00Z,28.8850,-90.0250,1009.1,11111222 
LOOP,urn:ioos:station:wmo:lopl1:1,2017-05-04T21:00:00Z,28.8850,-90.0250,1009.1,11111222 
LOOP,urn:ioos:station:wmo:lopl1:1,2017-05-04T22:05:00Z,28.8850,-90.0250,1010.1,11111222 
LOOP,urn:ioos:station:wmo:lopl1:1,2017-05-04T23:05:00Z,28.8850,-90.0250,1010.1,11111222 
LOOP,urn:ioos:station:wmo:lopl1:1,2017-05-05T00:05:00Z,28.8850,-90.0250,1011.1,11111222 
LOOP,urn:ioos:station:wmo:lopl1:1,2017-05-05T01:05:00Z,28.8850,-90.0250,1012.1,11111222 
LOOP,urn:ioos:station:wmo:lopl1:1,2017-05-05T02:05:00Z,28.8850,-90.0250,1012.1,11111222 
LOOP,urn:ioos:station:wmo:lopl1:1,2017-05-05T03:05:00Z,28.8850,-90.0250,1013.1,11111222 
LOOP,urn:ioos:station:wmo:lopl1:1,2017-05-05T04:05:00Z,28.8850,-90.0250,1014.1,11111222 
LOOP,urn:ioos:station:wmo:lopl1:1,2017-05-05T05:05:00Z,28.8850,-90.0250,1013.1,11111222 
LOOP,urn:ioos:station:wmo:lopl1:1,2017-05-05T06:05:00Z,28.8850,-90.0250,1012.1,11111222 
LOOP,urn:ioos:station:wmo:lopl1:1,2017-05-05T07:05:00Z,28.8850,-90.0250,1012.1,11111222 
LOOP,urn:ioos:station:wmo:lopl1:1,2017-05-05T08:05:00Z,28.8850,-90.0250,1011.1,11111222 
LOOP,urn:ioos:station:wmo:lopl1:1,2017-05-05T09:05:00Z,28.8850,-90.0250,1011.1,11111222 
LOOP,urn:ioos:station:wmo:lopl1:1,2017-05-05T10:10:00Z,28.8850,-90.0250,1011.1,11111222 
LOOP,urn:ioos:station:wmo:lopl1:1,2017-05-05T11:10:00Z,28.8850,-90.0250,1012.1,11111222 
LOOP,urn:ioos:station:wmo:lopl1:1,2017-05-05T12:10:00Z,28.8850,-90.0250,1012.1,11111222 
LOOP,urn:ioos:station:wmo:lopl1:1,2017-05-05T13:10:00Z,28.8850,-90.0250,1013.1,11111222 
LOOP,urn:ioos:station:wmo:lopl1:1,2017-05-05T14:10:00Z,28.8850,-90.0250,1013.1,11111222 
LOOP,urn:ioos:station:wmo:lopl1:1,2017-05-05T15:10:00Z,28.8850,-90.0250,1013.1,11111222 
LOOP,urn:ioos:station:wmo:lopl1:1,2017-05-05T16:10:00Z,28.8850,-90.0250,1013.1,11111222 
LOOP,urn:ioos:station:wmo:lopl1:1,2017-05-05T17:10:00Z,28.8850,-90.0250,1013.1,11111222 
LOOP,urn:ioos:station:wmo:lopl1:1,2017-05-05T18:10:00Z,28.8850,-90.0250,1013.1,11111222 
LOOP,urn:ioos:station:wmo:lopl1:1,2017-05-05T19:10:00Z,28.8850,-90.0250,1012.1,11111222 
LOOP,urn:ioos:station:wmo:lopl1:1,2017-05-05T20:10:00Z,28.8850,-90.0250,1012.1,11111222 
LOOP,urn:ioos:station:wmo:lopl1:1,2017-05-05T21:10:00Z,28.8850,-90.0250,1012.1,11111222 
LOOP,urn:ioos:station:wmo:lopl1:1,2017-05-05T22:10:00Z,28.8850,-90.0250,1012.1,11111222 
LOOP,urn:ioos:station:wmo:lopl1:1,2017-05-05T23:10:00Z,28.8850,-90.0250,1012.1,11111222 
LOOP,urn:ioos:station:wmo:lopl1:1,2017-05-06T00:15:00Z,28.8850,-90.0250,1012.1,11111222 
LOOP,urn:ioos:station:wmo:lopl1:1,2017-05-06T01:15:00Z,28.8850,-90.0250,1013.1,11111222 
LOOP,urn:ioos:station:wmo:lopl1:1,2017-05-06T02:15:00Z,28.8850,-90.0250,1014.1,11111222 
LOOP,urn:ioos:station:wmo:lopl1:1,2017-05-06T03:15:00Z,28.8850,-90.0250,1015.1,11111222 
LOOP,urn:ioos:station:wmo:lopl1:1,2017-05-06T04:15:00Z,28.8850,-90.0250,1015.1,11111222 
LOOP,urn:ioos:station:wmo:lopl1:1,2017-05-06T05:16:00Z,28.8850,-90.0250,1015.1,11111222 
LOOP,urn:ioos:station:wmo:lopl1:1,2017-05-06T06:16:00Z,28.8850,-90.0250,1015.1,11111222 
LOOP,urn:ioos:station:wmo:lopl1:1,2017-05-06T07:16:00Z,28.8850,-90.0250,1015.1,11111222 
LOOP,urn:ioos:station:wmo:lopl1:1,2017-05-06T08:16:00Z,28.8850,-90.0250,1015.1,11111222 
LOOP,urn:ioos:station:wmo:lopl1:1,2017-05-06T09:16:00Z,28.8850,-90.0250,1015.1,11111222 
LOOP,urn:ioos:station:wmo:lopl1:1,2017-05-06T10:16:00Z,28.8850,-90.0250,1015.1,11111222 
LOOP,urn:ioos:station:wmo:lopl1:1,2017-05-06T11:21:00Z,28.8850,-90.0250,1016.1,11111222 
LOOP,urn:ioos:station:wmo:lopl1:1,2017-05-06T12:21:00Z,28.8850,-90.0250,1017.1,11111222 
LOOP,urn:ioos:station:wmo:lopl1:1,2017-05-06T13:21:00Z,28.8850,-90.0250,1017.1,11111222 
LOOP,urn:ioos:station:wmo:lopl1:1,2017-05-06T14:21:00Z,28.8850,-90.0250,1017.1,11111222 
LOOP,urn:ioos:station:wmo:lopl1:1,2017-05-06T15:21:00Z,28.8850,-90.0250,1018.1,11111222 
LOOP,urn:ioos:station:wmo:lopl1:1,2017-05-06T16:21:00Z,28.8850,-90.0250,1018.1,11111222 
LOOP,urn:ioos:station:wmo:lopl1:1,2017-05-06T17:21:00Z,28.8850,-90.0250,1018.1,11111222 
LOOP,urn:ioos:station:wmo:lopl1:1,2017-05-06T18:21:00Z,28.8850,-90.0250,1017.1,11111222 
LOOP,urn:ioos:station:wmo:lopl1:1,2017-05-06T19:21:00Z,28.8850,-90.0250,1017.1,11111222 
LOOP,urn:ioos:station:wmo:lopl1:1,2017-05-06T20:21:00Z,28.8850,-90.0250,1016.1,11111222 
LOOP,urn:ioos:station:wmo:lopl1:1,2017-05-06T21:21:00Z,28.8850,-90.0250,1015.1,11111222 
LOOP,urn:ioos:station:wmo:lopl1:1,2017-05-06T22:21:00Z,28.8850,-90.0250,1015.1,11111222 
LOOP,urn:ioos:station:wmo:lopl1:1,2017-05-06T23:21:00Z,28.8850,-90.0250,1015.1,11111222 
LOOP,urn:ioos:station:wmo:lopl1:1,2017-05-07T00:21:00Z,28.8850,-90.0250,1015.1,11111222 
LOOP,urn:ioos:station:wmo:lopl1:1,2017-05-07T01:26:00Z,28.8850,-90.0250,1015.1,11111222 
LOOP,urn:ioos:station:wmo:lopl1:1,2017-05-07T02:26:00Z,28.8850,-90.0250,1016.1,11111222 
LOOP,urn:ioos:station:wmo:lopl1:1,2017-05-07T03:26:00Z,28.8850,-90.0250,1016.1,11111222 
LOOP,urn:ioos:station:wmo:lopl1:1,2017-05-07T04:26:00Z,28.8850,-90.0250,1016.1,11111222 
LOOP,urn:ioos:station:wmo:lopl1:1,2017-05-07T05:26:00Z,28.8850,-90.0250,1016.1,11111222 
LOOP,urn:ioos:station:wmo:lopl1:1,2017-05-07T06:31:00Z,28.8850,-90.0250,1016.1,11111222 
LOOP,urn:ioos:station:wmo:lopl1:1,2017-05-07T07:31:00Z,28.8850,-90.0250,1016.1,11111222 
LOOP,urn:ioos:station:wmo:lopl1:1,2017-05-07T08:31:00Z,28.8850,-90.0250,1016.1,11111222 
LOOP,urn:ioos:station:wmo:lopl1:1,2017-05-07T09:31:00Z,28.8850,-90.0250,1016.1,11111222 
LOOP,urn:ioos:station:wmo:lopl1:1,2017-05-07T10:31:00Z,28.8850,-90.0250,1016.1,11111222 
LOOP,urn:ioos:station:wmo:lopl1:1,2017-05-07T11:31:00Z,28.8850,-90.0250,1017.1,11111222 
LOOP,urn:ioos:station:wmo:lopl1:1,2017-05-07T12:31:00Z,28.8850,-90.0250,1018.1,11111222 
LOOP,urn:ioos:station:wmo:lopl1:1,2017-05-07T13:31:00Z,28.8850,-90.0250,1019.1,11111222 
LOOP,urn:ioos:station:wmo:lopl1:1,2017-05-07T14:31:00Z,28.8850,-90.0250,1019.1,11111222 
LOOP,urn:ioos:station:wmo:lopl1:1,2017-05-07T15:31:00Z,28.8850,-90.0250,1019.1,11111222 
LOOP,urn:ioos:station:wmo:lopl1:1,2017-05-07T16:31:00Z,28.8850,-90.0250,1019.1,11111222 
LOOP,urn:ioos:station:wmo:lopl1:1,2017-05-07T17:31:00Z,28.8850,-90.0250,1019.1,11111222 
LOOP,urn:ioos:station:wmo:lopl1:1,2017-05-07T18:31:00Z,28.8850,-90.0250,1019.1,11111222 
LOOP,urn:ioos:station:wmo:lopl1:1,2017-05-07T19:31:00Z,28.8850,-90.0250,1018.1,11111222 
LOOP,urn:ioos:station:wmo:lopl1:1,2017-05-07T20:31:00Z,28.8850,-90.0250,1018.1,11111222 
LOOP,urn:ioos:station:wmo:lopl1:1,2017-05-07T21:31:00Z,28.8850,-90.0250,1017.1,11111222 
LOOP,urn:ioos:station:wmo:lopl1:1,2017-05-07T22:31:00Z,28.8850,-90.0250,1017.1,11111222 
LOOP,urn:ioos:station:wmo:lopl1:1,2017-05-07T23:31:00Z,28.8850,-90.0250,1017.1,11111222 
LOOP,urn:ioos:station:wmo:lopl1:1,2017-05-08T00:31:00Z,28.8850,-90.0250,1017.1,11111222 
LOOP,urn:ioos:station:wmo:lopl1:1,2017-05-08T01:31:00Z,28.8850,-90.0250,1017.1,11111222 
LOOP,urn:ioos:station:wmo:lopl1:1,2017-05-08T02:31:00Z,28.8850,-90.0250,1018.1,11111222 
LOOP,urn:ioos:station:wmo:lopl1:1,2017-05-08T03:31:00Z,28.8850,-90.0250,1018.1,11111222 
LOOP,urn:ioos:station:wmo:lopl1:1,2017-05-08T04:36:00Z,28.8850,-90.0250,1018.1,11111222 
LOOP,urn:ioos:station:wmo:lopl1:1,2017-05-08T05:36:00Z,28.8850,-90.0250,1018.1,11111222 
LOOP,urn:ioos:station:wmo:lopl1:1,2017-05-08T06:36:00Z,28.8850,-90.0250,1018.1,11111222 
LOOP,urn:ioos:station:wmo:lopl1:1,2017-05-08T07:36:00Z,28.8850,-90.0250,1017.1,11111222 
LOOP,urn:ioos:station:wmo:lopl1:1,2017-05-08T08:36:00Z,28.8850,-90.0250,1017.1,11111222 
LOOP,urn:ioos:station:wmo:lopl1:1,2017-05-08T09:36:00Z,28.8850,-90.0250,1017.1,11111222 
LOOP,urn:ioos:station:wmo:lopl1:1,2017-05-08T10:36:00Z,28.8850,-90.0250,1018.1,11111222 
LOOP,urn:ioos:station:wmo:lopl1:1,2017-05-08T11:36:00Z,28.8850,-90.0250,1018.1,11111222 
LOOP,urn:ioos:station:wmo:lopl1:1,2017-05-08T12:36:00Z,28.8850,-90.0250,1019.1,11111222 
LOOP,urn:ioos:station:wmo:lopl1:1,2017-05-08T13:36:00Z,28.8850,-90.0250,1020.1,11111222 
LOOP,urn:ioos:station:wmo:lopl1:1,2017-05-08T14:36:00Z,28.8850,-90.0250,1020.1,11111222 
LOOP,urn:ioos:station:wmo:lopl1:1,2017-05-08T15:36:00Z,28.8850,-90.0250,1021.1,11111222 
LOOP,urn:ioos:station:wmo:lopl1:1,2017-05-08T16:41:00Z,28.8850,-90.0250,1020.1,11111222 
LOOP,urn:ioos:station:wmo:lopl1:1,2017-05-08T17:41:00Z,28.8850,-90.0250,1020.1,11111222 
LOOP,urn:ioos:station:wmo:lopl1:1,2017-05-08T18:41:00Z,28.8850,-90.0250,1020.1,11111222 
LOOP,urn:ioos:station:wmo:lopl1:1,2017-05-08T19:41:00Z,28.8850,-90.0250,1019.1,11111222 
LOOP,urn:ioos:station:wmo:lopl1:1,2017-05-08T20:41:00Z,28.8850,-90.0250,1019.1,11111222 
LOOP,urn:ioos:station:wmo:lopl1:1,2017-05-08T21:41:00Z,28.8850,-90.0250,1019.1,11111222 
LOOP,urn:ioos:station:wmo:lopl1:1,2017-05-08T22:41:00Z,28.8850,-90.0250,1018.1,11111222 
LOOP,urn:ioos:station:wmo:lopl1:1,2017-05-08T23:41:00Z,28.8850,-90.0250,1018.1,11111222 
LOOP,urn:ioos:station:wmo:lopl1:1,2017-05-09T00:41:00Z,28.8850,-90.0250,1019.1,11111222 
LOOP,urn:ioos:station:wmo:lopl1:1,2017-05-09T01:41:00Z,28.8850,-90.0250,1019.1,11111222 
LOOP,urn:ioos:station:wmo:lopl1:1,2017-05-09T02:41:00Z,28.8850,-90.0250,1019.1,11111222 
LOOP,urn:ioos:station:wmo:lopl1:1,2017-05-09T03:41:00Z,28.8850,-90.0250,1019.1,11111222 
LOOP,urn:ioos:station:wmo:lopl1:1,2017-05-09T04:41:00Z,28.8850,-90.0250,1019.1,11111222 
LOOP,urn:ioos:station:wmo:lopl1:1,2017-05-09T05:46:00Z,28.8850,-90.0250,1018.1,11111222 
LOOP,urn:ioos:station:wmo:lopl1:1,2017-05-09T06:46:00Z,28.8850,-90.0250,1017.1,11111222 
LOOP,urn:ioos:station:wmo:lopl1:1,2017-05-09T07:46:00Z,28.8850,-90.0250,1017.1,11111222 
LOOP,urn:ioos:station:wmo:lopl1:1,2017-05-09T08:46:00Z,28.8850,-90.0250,1017.1,11111222 
LOOP,urn:ioos:station:wmo:lopl1:1,2017-05-09T09:46:00Z,28.8850,-90.0250,1017.1,11111222 
LOOP,urn:ioos:station:wmo:lopl1:1,2017-05-09T10:46:00Z,28.8850,-90.0250,1018.1,11111222 
LOOP,urn:ioos:station:wmo:lopl1:1,2017-05-09T11:46:00Z,28.8850,-90.0250,1019.1,11111222 
LOOP,urn:ioos:station:wmo:lopl1:1,2017-05-09T12:46:00Z,28.8850,-90.0250,1020.1,11111222 
LOOP,urn:ioos:station:wmo:lopl1:1,2017-05-09T13:46:00Z,28.8850,-90.0250,1020.1,11111222 
LOOP,urn:ioos:station:wmo:lopl1:1,2017-05-09T14:46:00Z,28.8850,-90.0250,1020.1,11111222 
LOOP,urn:ioos:station:wmo:lopl1:1,2017-05-09T15:46:00Z,28.8850,-90.0250,1021.1,11111222 
LOOP,urn:ioos:station:wmo:lopl1:1,2017-05-09T16:46:00Z,28.8850,-90.0250,1020.1,11111222 
LOOP,urn:ioos:station:wmo:lopl1:1,2017-05-09T17:46:00Z,28.8850,-90.0250,1020.1,11111222 
LOOP,urn:ioos:station:wmo:lopl1:1,2017-05-09T18:46:00Z,28.8850,-90.0250,1020.1,11111222 
LOOP,urn:ioos:station:wmo:lopl1:1,2017-05-09T19:51:00Z,28.8850,-90.0250,1020.1,11111222 
LOOP,urn:ioos:station:wmo:lopl1:1,2017-05-09T20:51:00Z,28.8850,-90.0250,1019.1,11111222 
LOOP,urn:ioos:station:wmo:lopl1:1,2017-05-09T21:51:00Z,28.8850,-90.0250,1018.1,11111222 
LOOP,urn:ioos:station:wmo:lopl1:1,2017-05-09T22:51:00Z,28.8850,-90.0250,1018.1,11111222 
LOOP,urn:ioos:station:wmo:lopl1:1,2017-05-09T23:51:00Z,28.8850,-90.0250,1018.1,11111222 
LOOP,urn:ioos:station:wmo:lopl1:1,2017-05-10T00:51:00Z,28.8850,-90.0250,1018.1,11111222 
LOOP,urn:ioos:station:wmo:lopl1:1,2017-05-10T01:51:00Z,28.8850,-90.0250,1018.1,11111222 
LOOP,urn:ioos:station:wmo:lopl1:1,2017-05-10T02:51:00Z,28.8850,-90.0250,1019.1,11111222 
LOOP,urn:ioos:station:wmo:lopl1:1,2017-05-10T03:51:00Z,28.8850,-90.0250,1019.1,11111222 
LOOP,urn:ioos:station:wmo:lopl1:1,2017-05-10T04:51:00Z,28.8850,-90.0250,1018.1,11111222 
LOOP,urn:ioos:station:wmo:lopl1:1,2017-05-10T05:51:00Z,28.8850,-90.0250,1018.1,11111222 
LOOP,urn:ioos:station:wmo:lopl1:1,2017-05-10T06:56:00Z,28.8850,-90.0250,1018.1,11111222 
LOOP,urn:ioos:station:wmo:lopl1:1,2017-05-10T07:56:00Z,28.8850,-90.0250,1017.1,11111222 
LOOP,urn:ioos:station:wmo:lopl1:1,2017-05-10T08:56:00Z,28.8850,-90.0250,1017.1,11111222 
LOOP,urn:ioos:station:wmo:lopl1:1,2017-05-10T09:56:00Z,28.8850,-90.0250,1017.1,11111222 
LOOP,urn:ioos:station:wmo:lopl1:1,2017-05-10T10:56:00Z,28.8850,-90.0250,1018.1,11111222 
LOOP,urn:ioos:station:wmo:lopl1:1,2017-05-10T11:56:00Z,28.8850,-90.0250,1018.1,11111222 
LOOP,urn:ioos:station:wmo:lopl1:1,2017-05-10T12:56:00Z,28.8850,-90.0250,1019.1,11111222 
LOOP,urn:ioos:station:wmo:lopl1:1,2017-05-10T16:56:00Z,28.8850,-90.0250,1020.1,11111222 
LOOP,urn:ioos:station:wmo:lopl1:1,2017-05-10T17:56:00Z,28.8850,-90.0250,1019.1,11111222 
LOOP,urn:ioos:station:wmo:lopl1:1,2017-05-10T18:56:00Z,28.8850,-90.0250,1019.1,11111222 
LOOP,urn:ioos:station:wmo:lopl1:1,2017-05-10T20:01:00Z,28.8850,-90.0250,1019.1,11111222 
LOOP,urn:ioos:station:wmo:lopl1:1,2017-05-10T21:01:00Z,28.8850,-90.0250,1019.1,11111222 
LOOP,urn:ioos:station:wmo:lopl1:1,2017-05-10T22:01:00Z,28.8850,-90.0250,1018.1,11111222 
LOOP,urn:ioos:station:wmo:lopl1:1,2017-05-10T23:01:00Z,28.8850,-90.0250,1018.1,11111222 
LOOP,urn:ioos:station:wmo:lopl1:1,2017-05-11T00:01:00Z,28.8850,-90.0250,1018.1,11111222 
LOOP,urn:ioos:station:wmo:lopl1:1,2017-05-11T01:01:00Z,28.8850,-90.0250,1018.1,11111222 
LOOP,urn:ioos:station:wmo:lopl1:1,2017-05-11T02:01:00Z,28.8850,-90.0250,1018.1,11111222 
LOOP,urn:ioos:station:wmo:lopl1:1,2017-05-11T03:01:00Z,28.8850,-90.0250,1019.1,11111222 
LOOP,urn:ioos:station:wmo:lopl1:1,2017-05-11T04:01:00Z,28.8850,-90.0250,1019.1,11111222 
LOOP,urn:ioos:station:wmo:lopl1:1,2017-05-11T05:01:00Z,28.8850,-90.0250,1018.1,11111222 
LOOP,urn:ioos:station:wmo:lopl1:1,2017-05-11T06:01:00Z,28.8850,-90.0250,1017.1,11111222 
LOOP,urn:ioos:station:wmo:lopl1:1,2017-05-11T07:01:00Z,28.8850,-90.0250,1017.1,11111222 
LOOP,urn:ioos:station:wmo:lopl1:1,2017-05-11T08:01:00Z,28.8850,-90.0250,1016.1,11111222 
LOOP,urn:ioos:station:wmo:lopl1:1,2017-05-11T09:01:00Z,28.8850,-90.0250,1016.1,11111222 
LOOP,urn:ioos:station:wmo:lopl1:1,2017-05-11T10:01:00Z,28.8850,-90.0250,1016.1,11111222 
LOOP,urn:ioos:station:wmo:lopl1:1,2017-05-11T11:06:00Z,28.8850,-90.0250,1016.1,11111222 
LOOP,urn:ioos:station:wmo:lopl1:1,2017-05-11T12:06:00Z,28.8850,-90.0250,1017.1,11111222 
LOOP,urn:ioos:station:wmo:lopl1:1,2017-05-11T13:06:00Z,28.8850,-90.0250,1017.1,11111222 
LOOP,urn:ioos:station:wmo:lopl1:1,2017-05-11T14:06:00Z,28.8850,-90.0250,1018.1,11111222 
LOOP,urn:ioos:station:wmo:lopl1:1,2017-05-11T16:06:00Z,28.8850,-90.0250,1019.1,11111222 
LOOP,urn:ioos:station:wmo:lopl1:1,2017-05-11T17:06:00Z,28.8850,-90.0250,1018.1,11111222 
LOOP,urn:ioos:station:wmo:lopl1:1,2017-05-11T18:06:00Z,28.8850,-90.0250,1018.1,11111222 
LOOP,urn:ioos:station:wmo:lopl1:1,2017-05-11T19:06:00Z,28.8850,-90.0250,1017.1,11111222 
LOOP,urn:ioos:station:wmo:lopl1:1,2017-05-11T20:06:00Z,28.8850,-90.0250,1016.1,11111222 
LOOP,urn:ioos:station:wmo:lopl1:1,2017-05-11T21:06:00Z,28.8850,-90.0250,1016.1,11111222 
LOOP,urn:ioos:station:wmo:lopl1:1,2017-05-11T22:06:00Z,28.8850,-90.0250,1015.1,11111222 
LOOP,urn:ioos:station:wmo:lopl1:1,2017-05-11T23:06:00Z,28.8850,-90.0250,1014.1,11111222 
LOOP,urn:ioos:station:wmo:lopl1:1,2017-05-12T00:11:00Z,28.8850,-90.0250,1014.1,11111222 
LOOP,urn:ioos:station:wmo:lopl1:1,2017-05-12T01:11:00Z,28.8850,-90.0250,1014.1,11111222 
LOOP,urn:ioos:station:wmo:lopl1:1,2017-05-12T02:11:00Z,28.8850,-90.0250,1014.1,11111222 
LOOP,urn:ioos:station:wmo:lopl1:1,2017-05-12T03:11:00Z,28.8850,-90.0250,1014.1,11111222 
LOOP,urn:ioos:station:wmo:lopl1:1,2017-05-12T04:11:00Z,28.8850,-90.0250,1014.1,11111222 
LOOP,urn:ioos:station:wmo:lopl1:1,2017-05-12T05:11:00Z,28.8850,-90.0250,1014.1,11111222 
LOOP,urn:ioos:station:wmo:lopl1:1,2017-05-12T06:11:00Z,28.8850,-90.0250,1013.1,11111222 
LOOP,urn:ioos:station:wmo:lopl1:1,2017-05-12T07:11:00Z,28.8850,-90.0250,1013.1,11111222 
LOOP,urn:ioos:station:wmo:lopl1:1,2017-05-12T08:11:00Z,28.8850,-90.0250,1013.1,11111222 